Home > Weather > Eau Claire > Past weeks

Flag for USA Past Weather in Eau Claire, Wisconsin, USA — Yesterday and Last 2 Weeks

Now
69 °F

Broken clouds.


Feels Like: 69 °F
Forecast: 58 / 74 °F
Wind: 10 mph from North

Location: Eau Claire County Airport

Current Time: Jun 30, 2016 at 12:52:46 PM

Latest Report: Jun 30, 2016 at 11:56 AM


Visibility: 10 mi

Pressure: 29.94 "Hg

Humidity: 70%

Dew Point: 59 °F

Location of Eau ClaireLocation

Past Weather in Eau Claire — Graph

°F

Eau Claire Temperature Yesterday

Maximum temperature yesterday: 76 °F (at 5:56 PM)
Minimum temperature yesterday: 51 °F (at 4:56 AM)
Average temperature yesterday: 65 °F

High & Low Weather Summary for the Past Weeks

 TemperatureHumidityPressure
High90 °F (Jun 25, 4:56 PM)100% (Jun 17, 3:56 AM)30.26 "Hg (Jun 17, 3:56 AM)
Low51 °F (Jun 29, 4:56 AM)31% (Jun 21, 4:56 PM)29.66 "Hg (Jun 15, 12:56 PM)
Average71 °F69%29.99 "Hg
* Reported Jun 15 10:56 AM — Jun 30 10:56 AM, Eau Claire, Weather by CustomWeather, © 2016

Note: Actual official high and low records may vary slightly from our data, if they occured in-between our weather recording intervals... More about our weather records

Advertising

Eau Claire Weather History for the Previous 24 Hours

Scroll right to see more
 ConditionsComfort  
Time TempWeatherWind HumidityBarometerVisibility
10:56 AM
Thu, Jun 30
71 °FMostly cloudy.9 mph63%29.94 "Hg10 mi
9:56 AM72 °FPassing clouds.8 mph68%29.94 "Hg10 mi
8:56 AM71 °FScattered clouds.13 mph73%29.95 "Hg10 mi
7:56 AM66 °FPartly sunny.6 mph81%29.95 "Hg10 mi
6:56 AM62 °FSunny.No wind90%29.95 "Hg10 mi
5:56 AM57 °FClear.No wind96%29.96 "Hg10 mi
4:56 AM57 °FClear.No wind96%29.96 "Hg10 mi
3:56 AM57 °FClear.No wind93%29.96 "Hg10 mi
2:56 AM56 °FClear.No wind97%29.96 "Hg9 mi
1:56 AM56 °FClear.No wind93%29.98 "Hg10 mi
12:56 AM58 °FClear.No wind97%29.99 "Hg10 mi
11:56 PM
Wed, Jun 29
59 °FClear.No wind93%29.99 "Hg10 mi
10:56 PM60 °FClear.No wind90%30.01 "Hg10 mi
9:56 PM62 °FClear.No wind80%30.02 "Hg10 mi
8:56 PM68 °FSunny.No wind68%30.01 "Hg10 mi
7:56 PM73 °FSunny.No wind50%30.01 "Hg10 mi
6:56 PM75 °FSunny.7 mph43%30.01 "Hg10 mi
5:56 PM76 °FSunny.8 mph45%30.01 "Hg10 mi
4:56 PM75 °FPassing clouds.6 mph45%30.03 "Hg10 mi
3:56 PM75 °FSunny.5 mph45%30.06 "Hg10 mi
2:56 PM73 °FSunny.3 mph48%30.08 "Hg10 mi
1:56 PM72 °FSunny.6 mph48%30.09 "Hg10 mi
12:56 PM72 °FScattered clouds.8 mph48%30.10 "Hg10 mi
Weather by CustomWeather, © 2016

See weather overviewHow to use our weather pages